{"data":{"norad_id":65488,"intl_designator":"2025-197A","name":"2025-197A","alt_names":[],"object_type":"PAYLOAD","status":"ACTIVE","operator":null,"country":"PRC","launch_date":"2025-09-05","launch_site_code":"JSC","launch_vehicle":null,"mission":null,"orbit_class":"UNKNOWN","rcs_meters":null,"size_class":null,"mass_kg":null,"dimensions":null,"purposes":[],"wikipedia_slug":null,"has_3d_model":false,"image_url":null,"decayed_at":null,"tle_current":{"epoch":"2026-09-20T10:35:18.664800Z","epoch_age_seconds":160533,"freshness":"FRESH","line1":"1 65488U 25197A   26263.44118825  .00002208  00000+0  13574-3 0  9991","line2":"2 65488  97.4171  82.6312 0014790  63.6346 296.6401 15.10979344 57398","mean_motion":15.10979344,"eccentricity":0.001479,"inclination_deg":97.4171,"raan_deg":82.6312,"arg_perigee_deg":63.6346,"mean_anomaly_deg":296.6401,"bstar":0.00013574,"rev_number":5739,"period_min":95.302427906652,"perigee_km":522.99010170549,"apogee_km":543.43387200861,"semimajor_km":6911.3489868571,"source":"CELESTRAK","updated_at":"2026-09-21T09:00:15.388348Z"}}}